User: anonymous   Login
Location: N�rnberg
(49.4471°N, 11.0632°E)
Time: 06:57:23
(UTC+02:00)
Language:

ZACube-1 - Orbit

View from above orbital plane
View from above orbital plane
View from above satellite
View from above satellite

Ground track
Ground track

The orbit is defined by the following mean orbital elements,

1 39417U          26110.87503685 +.00000000 +00000-0 +27812-3 0 00002
2 39417  97.8132  72.9064 0044650  83.9942 276.6367 15.00700152    06
Epoch (UTC): 20 April 2026 21:00:03
Eccentricity: 0.0044650
inclination: 97.8132°
perigee height: 534 km
apogee height: 596 km
right ascension of ascending node: 72.9064°
argument of perigee: 83.9942°
revolutions per day: 15.00700152
mean anomaly at epoch: 276.6367°

The dashed part of the orbit path shows where the satellite is in the earth's shadow,  

DLR